Tracking 28081 objects as of 26-Sep-2023
HD Live streaming from Space Station
objects crossing your sky now

USA 236

Track USA 236 now!
USA 236 is classified as:


NORAD ID: 38466
Int'l Code: 2012-033A
Perigee: 35,775.9 km
Apogee: 35,812.6 km
Inclination: 5.4 °
Period: 1,436.1 minutes
Semi major axis: 42165 km
RCS: Unknown
Launch date: June 20, 2012
Source: United States (US)
Launch site: AIR FORCE EASTERN TEST RANGE (AFETR)

NROL-38 (USA 236) is a classified satellite.
Your satellite tracking list
Your tracking list is empty




NASA's NSSDC Master Catalog

Two Line Element Set (TLE):
1 38466U 12033A   23263.32759744 0.00000000  00000-0  00000-0 0    06
2 38466   5.3679  92.8677 0004355 182.7790 177.2316  1.00270000    06
Source of the keplerian elements: McCants